OpenBCM V1.08-5-g2f4a (Linux)

Packet Radio Mailbox

IZ3LSV

[San Dona' di P. JN]

 Login: GUEST





  
CX2SA  > KEP      15.01.20 02:16l 86 Lines 3611 Bytes #999 (0) @ ARL
BID : ARLK004
Read: GUEST
Subj: ARLK004 Keplerian data
Path: IZ3LSV<IQ2LB<IK1NHL<CX2SA
Sent: 200114/2356Z @:CX2SA.SAL.URY.SOAM #:22929 [Salto] FBB7.00e $:ARLK004
From: CX2SA@CX2SA.SAL.URY.SOAM
To  : KEP@ARL


ZCZC SK04
QST de W1AW
Keplerian Bulletin 4  ARLK004
From ARRL Headquarters
Newington, CT  January 14, 2020
To all radio amateurs

SB KEP ARL ARLK004
ARLK004 Keplerian data

Special thanks to AMSAT-NA (AMSAT.ORG) for the following Keplerian
data.

Decode 2-line elsets with the following key:
1 AAAAAU 00  0  0 BBBBB.BBBBBBBB  .CCCCCCCC  00000-0  00000-0 0  DDDZ
2 AAAAA EEE.EEEE FFF.FFFF GGGGGGG HHH.HHHH III.IIII JJ.JJJJJJJJKKKKKZ
KEY: A-CATALOGNUM B-EPOCHTIME C-DECAY D-ELSETNUM E-INCLINATION F-RAAN
G-ECCENTRICITY H-ARGPERIGEE I-MNANOM J-MNMOTION K-ORBITNUM Z-CHECKSUM

0 AO-07
1 7530U 74089B   20013.55857145 -.00000039  00000-0  35715-4 0  9997
2 7530 101.7776 344.3149 0012056 305.5383 168.8186 12.53641584 66699
0 FO-29
1 24278U 96046B   20013.96047549 -.00000037  00000-0 -38332-5 0  9994
2 24278  98.5651 144.3057 0351219  57.7036 305.7617 13.53095186156105
0 ISS
1 25544U 98067A   20014.55106447  .00001081  00000-0  27319-4 0  9995
2 25544  51.6449  33.6082 0005001 130.1836   8.0955 15.49563139208048
0 SO-50
1 27607U 02058C   20013.76417617 +.00000000 +00000-0 +20830-4 0  9999
2 27607 064.5551 130.3766 0066699 214.9012 144.7709 14.75602253917757
0 CO-55
1 27844U 03031E   20014.02489993  .00000023  00000-0  29879-4 0  9997
2 27844  98.6834  24.0957 0010514 140.9596 219.2343 14.22215676858042
0 RS-22
1 27939U 03042A   20014.47176162 -.00000041  00000-0  12260-5 0  9992
2 27939  98.0676 151.5824 0014310 121.9326 238.3262 14.66829741871298
0 RS-30
1 32953U 08025A   20014.46594478  .00000037  00000-0  19437-3 0  9998
2 32953  82.5036  14.3001 0020062  34.7207 325.5178 12.43093761528372
0 KKS-1
1 33499U 09002H   20013.88643924 +.00000061 +00000-0 +16974-4 0  9997
2 33499 098.3318 224.0958 0007900 259.5635 100.4683 14.75495677589642
0 AO-71
1 37854U 11061E   20014.47976679  .00000584  00000-0  37460-4 0  9999
2 37854 101.7137  25.7397 0159435 162.5417 198.1366 15.06920601448588
0 AO-73
1 39444U 13066AE  20013.87845492  .00000252  00000-0  37098-4 0  9993
2 39444  97.5573  22.7314 0059308  61.7652 298.9532 14.82043970330915
0 UKUBE 1
1 40074U 14037F   20014.44476338  .00000225  00000-0  34072-4 0  9995
2 40074  98.4493 193.5750 0003191 256.5627 103.5235 14.84173497298760
0 XW-2A
1 40903U 15049E   20014.49506623  .00001887  00000-0  45344-4 0  9995
2 40903  97.3112  63.1858 0015230 104.0053   3.4780 15.42523963242589
0 XW-2F
1 40910U 15049M   20014.51207567  .00000809  00000-0  43444-4 0  9993
2 40910  97.4648  20.2206 0014692 173.7181 338.4717 15.17648327238837
0 XW-2B
1 40911U 15049N   20014.52700428  .00000783  00000-0  44108-4 0  9998
2 40911  97.4727  18.5872 0013834 182.9163 293.3333 15.16033868238698
0 IO-86
1 40931U 15052B   20014.47486710  .00000802  00000-0  22524-4 0  9993
2 40931   6.0004   0.5865 0013783 245.6705 114.1795 14.76624835232319
0 CAS-4B
1 42759U 17034B   20014.47999002  .00000079  00000-0  18320-4 0  9993
2 42759  43.0164 158.4588 0010109 137.1437 330.8606 15.09720665142546
0 CAS-4A
1 42761U 17034D   20014.49194066  .00000051  00000-0  16614-4 0  9999
2 42761  43.0173 157.7946 0010549 139.1722 293.1927 15.09798437142545
0 AO-91
1 43017U 17073E   20014.30949900  .00000312  00000-0  29954-4 0  9993
2 43017  97.7270 292.5066 0257081 195.4618 163.8635 14.78770965116235
0 AO-92
1 43137U 18004AC  20014.13253500  .00000938  00000-0  41909-4 0  9994
2 43137  97.4650  86.2259 0007881 235.5596 124.4896 15.23823513111383

Keplerian bulletins are transmitted twice weekly from W1AW.  The
next scheduled transmission of these data will be Friday, January 17,
2020, at 2230z on Baudot and BPSK31.
NNNN


Read previous mail | Read next mail


 14.10.2025 05:02:28lGo back Go up